VOZ9291 YANG-YBRM

Flight info

Callsign VOZ9291
Flight time 1h 1m
Altitude 35000
Route ASEBU Y31 BRM
Aircraft A320/M-SDE3FGHIRWY/LB1

Departure

Time 2026-05-06 17:55
Airport West Angelas Airport (YANG)

Arrival

Time 2026-05-06 18:56
Airport Broome International Airport (YBRM)
Time Latitude Longitude Altitude Speed Heading
2026-05-06 17:46 -23.13696 118.70416 2303 ft 0 kts 334°
2026-05-06 17:51 -23.13695 118.70415 2304 ft 1 kts 337°
2026-05-06 17:51 -23.13682 118.70430 2312 ft 5 kts 99°
2026-05-06 17:51 -23.13691 118.70489 2307 ft 10 kts 88°
2026-05-06 17:51 -23.13691 118.70514 2308 ft 0 kts 97°
2026-05-06 17:52 -23.13698 118.70529 2312 ft 4 kts 124°
2026-05-06 17:52 -23.13732 118.70562 2301 ft 9 kts 149°
2026-05-06 17:52 -23.13794 118.70532 2308 ft 13 kts 226°
2026-05-06 17:52 -23.13866 118.70451 2306 ft 19 kts 225°
2026-05-06 17:53 -23.13985 118.70318 2307 ft 29 kts 226°
2026-05-06 17:53 -23.14129 118.70161 2303 ft 29 kts 224°
2026-05-06 17:53 -23.14218 118.70096 2299 ft 7 kts 231°
2026-05-06 17:53 -23.14206 118.70079 2301 ft 3 kts 350°
2026-05-06 17:54 -23.14189 118.70095 2300 ft 0 kts 46°
2026-05-06 17:54 -23.14126 118.70166 2301 ft 49 kts 47°
2026-05-06 17:54 -23.13709 118.70624 2311 ft 120 kts 45°
2026-05-06 17:54 -23.13011 118.71408 2492 ft 156 kts 51°
2026-05-06 17:55 -23.12243 118.72250 3223 ft 159 kts 50°
2026-05-06 17:55 -23.11454 118.73083 4119 ft 158 kts 52°
2026-05-06 17:55 -23.10624 118.73955 4514 ft 177 kts 52°
2026-05-06 17:55 -23.09696 118.74954 4880 ft 200 kts 51°
2026-05-06 17:56 -23.08650 118.76088 5297 ft 225 kts 50°
2026-05-06 17:56 -23.07498 118.77328 5973 ft 239 kts 49°
2026-05-06 17:56 -23.06301 118.78601 6862 ft 244 kts 46°
2026-05-06 17:56 -23.05069 118.79904 7677 ft 251 kts 46°
2026-05-06 17:57 -23.03802 118.81246 8508 ft 257 kts 45°
2026-05-06 17:57 -23.02506 118.82618 9328 ft 264 kts 44°
2026-05-06 17:57 -23.01177 118.84028 10122 ft 271 kts 44°
2026-05-06 17:57 -22.99774 118.85519 10446 ft 294 kts 44°
2026-05-06 17:58 -22.98267 118.87123 10822 ft 311 kts 44°
2026-05-06 17:58 -22.96726 118.88767 11462 ft 318 kts 44°
2026-05-06 17:58 -22.95127 118.90469 12099 ft 325 kts 43°
2026-05-06 17:58 -22.93492 118.92205 12744 ft 333 kts 44°
2026-05-06 17:59 -22.91816 118.93987 13347 ft 341 kts 43°
2026-05-06 17:59 -22.90101 118.95808 13953 ft 349 kts 44°
2026-05-06 17:59 -22.88341 118.97676 14457 ft 358 kts 43°
2026-05-06 17:59 -22.86548 118.99581 15052 ft 363 kts 43°
2026-05-06 18:00 -22.84726 119.01514 15636 ft 369 kts 43°
2026-05-06 18:00 -22.82882 119.03468 16235 ft 374 kts 43°
2026-05-06 18:00 -22.81010 119.05453 16817 ft 378 kts 43°
2026-05-06 18:00 -22.79115 119.07461 17394 ft 384 kts 43°
2026-05-06 18:01 -22.77195 119.09494 18029 ft 388 kts 43°
2026-05-06 18:01 -22.75251 119.11555 18615 ft 392 kts 43°
2026-05-06 18:01 -22.73292 119.13631 19142 ft 397 kts 43°
2026-05-06 18:01 -22.71306 119.15731 19716 ft 400 kts 43°
2026-05-06 18:02 -22.69327 119.17821 20261 ft 405 kts 43°
2026-05-06 18:02 -22.67306 119.19955 20854 ft 408 kts 43°
2026-05-06 18:02 -22.65259 119.22121 21428 ft 411 kts 43°
2026-05-06 18:02 -22.63205 119.24294 21962 ft 416 kts 43°
2026-05-06 18:03 -22.61126 119.26490 22528 ft 418 kts 43°
2026-05-06 18:03 -22.59035 119.28695 23095 ft 421 kts 43°
2026-05-06 18:03 -22.56924 119.30919 23639 ft 425 kts 43°
2026-05-06 18:03 -22.54795 119.33159 24095 ft 428 kts 43°
2026-05-06 18:04 -22.52652 119.35412 24516 ft 432 kts 43°
2026-05-06 18:04 -22.50485 119.37692 24915 ft 436 kts 43°
2026-05-06 18:04 -22.48298 119.39993 25308 ft 441 kts 43°
2026-05-06 18:04 -22.46092 119.42320 25683 ft 445 kts 43°
2026-05-06 18:05 -22.43868 119.44669 26065 ft 449 kts 42°
2026-05-06 18:05 -22.41619 119.47036 26436 ft 454 kts 42°
2026-05-06 18:05 -22.39345 119.49420 26804 ft 458 kts 42°
2026-05-06 18:05 -22.37047 119.51828 27128 ft 463 kts 41°
2026-05-06 18:06 -22.34725 119.54262 27442 ft 468 kts 41°
2026-05-06 18:06 -22.32378 119.56723 27787 ft 472 kts 41°
2026-05-06 18:06 -22.30012 119.59208 28127 ft 476 kts 41°
2026-05-06 18:06 -22.27630 119.61709 28478 ft 480 kts 41°
2026-05-06 18:07 -22.25225 119.64233 28821 ft 484 kts 41°
2026-05-06 18:07 -22.22831 119.66744 29161 ft 488 kts 40°
2026-05-06 18:07 -22.20385 119.69305 29504 ft 492 kts 40°
2026-05-06 18:07 -22.17911 119.71890 29842 ft 496 kts 40°
2026-05-06 18:08 -22.15421 119.74484 30169 ft 499 kts 40°
2026-05-06 18:08 -22.12912 119.77099 30447 ft 503 kts 40°
2026-05-06 18:08 -22.10384 119.79737 30720 ft 507 kts 40°
2026-05-06 18:08 -22.07843 119.82393 30998 ft 510 kts 40°
2026-05-06 18:09 -22.05285 119.85062 31278 ft 513 kts 40°
2026-05-06 18:09 -22.03579 119.86842 31468 ft 515 kts 40°
2026-05-06 18:09 -22.00269 119.90277 31772 ft 520 kts 39°
2026-05-06 18:10 -21.97670 119.92983 32137 ft 520 kts 39°
2026-05-06 18:10 -21.95157 119.95603 32501 ft 521 kts 39°
2026-05-06 18:10 -21.92548 119.98320 32867 ft 522 kts 39°
2026-05-06 18:10 -21.89962 120.01012 33231 ft 523 kts 39°
2026-05-06 18:11 -21.87339 120.03743 33614 ft 524 kts 39°
2026-05-06 18:11 -21.84717 120.06473 33982 ft 525 kts 39°
2026-05-06 18:11 -21.82090 120.09205 34314 ft 525 kts 39°
2026-05-06 18:11 -21.79462 120.11937 34640 ft 526 kts 39°
2026-05-06 18:12 -21.76830 120.14674 34962 ft 526 kts 39°
2026-05-06 18:12 -21.74199 120.17403 35081 ft 525 kts 38°
2026-05-06 18:12 -21.69138 120.22640 35109 ft 518 kts 38°
2026-05-06 18:13 -21.63986 120.27963 35107 ft 516 kts 38°
2026-05-06 18:13 -21.58802 120.33318 35104 ft 516 kts 38°
2026-05-06 18:14 -21.53618 120.38665 35100 ft 516 kts 38°
2026-05-06 18:14 -21.48445 120.44008 35105 ft 516 kts 38°
2026-05-06 18:15 -21.43345 120.49275 35097 ft 516 kts 38°
2026-05-06 18:15 -21.38159 120.54610 35100 ft 516 kts 38°
2026-05-06 18:16 -21.32969 120.59936 35106 ft 516 kts 38°
2026-05-06 18:16 -21.27781 120.65265 35083 ft 516 kts 38°
2026-05-06 18:17 -21.22592 120.70597 35095 ft 517 kts 38°
2026-05-06 18:17 -21.17406 120.75925 35100 ft 516 kts 38°
2026-05-06 18:18 -21.12213 120.81245 35094 ft 516 kts 38°
2026-05-06 18:18 -21.07021 120.86556 35098 ft 516 kts 38°
2026-05-06 18:19 -21.01865 120.91828 35090 ft 516 kts 38°
2026-05-06 18:19 -20.96664 120.97134 35088 ft 516 kts 38°
2026-05-06 18:20 -20.91471 121.02422 35074 ft 515 kts 38°
2026-05-06 18:20 -20.86271 121.07709 35079 ft 515 kts 38°
2026-05-06 18:21 -20.81076 121.13001 35088 ft 515 kts 38°
2026-05-06 18:21 -20.75920 121.18256 35088 ft 515 kts 38°
2026-05-06 18:22 -20.70723 121.23527 35089 ft 515 kts 38°
2026-05-06 18:22 -20.65495 121.28831 35089 ft 515 kts 37°
2026-05-06 18:23 -20.60335 121.34059 35091 ft 514 kts 37°
2026-05-06 18:23 -20.55144 121.39322 35067 ft 514 kts 37°
2026-05-06 18:24 -20.49957 121.44577 35071 ft 514 kts 37°
2026-05-06 18:24 -20.44760 121.49831 35074 ft 514 kts 37°
2026-05-06 18:25 -20.39563 121.55077 35074 ft 514 kts 37°
2026-05-06 18:25 -20.34366 121.60319 35079 ft 514 kts 37°
2026-05-06 18:26 -20.29171 121.65558 35081 ft 514 kts 37°
2026-05-06 18:26 -20.23970 121.70784 35082 ft 514 kts 37°
2026-05-06 18:27 -20.18771 121.76020 35047 ft 514 kts 37°
2026-05-06 18:27 -20.13406 121.80978 35055 ft 504 kts 26°
2026-05-06 18:28 -20.10423 121.82857 35056 ft 493 kts 17°
2026-05-06 18:28 -20.07300 121.84295 35055 ft 487 kts 12°
2026-05-06 18:28 -20.01059 121.86997 35056 ft 488 kts 13°
2026-05-06 18:29 -19.94777 121.89754 35060 ft 488 kts 13°
2026-05-06 18:29 -19.88492 121.92518 35026 ft 489 kts 13°
2026-05-06 18:30 -19.82198 121.95265 35035 ft 489 kts 13°
2026-05-06 18:30 -19.75900 121.98005 35037 ft 489 kts 13°
2026-05-06 18:31 -19.69599 122.00761 35046 ft 490 kts 13°
2026-05-06 18:31 -19.63329 122.03499 35027 ft 490 kts 13°
2026-05-06 18:32 -19.60204 122.04857 34296 ft 495 kts 13°
2026-05-06 18:32 -19.57007 122.06242 33672 ft 494 kts 13°
2026-05-06 18:32 -19.53836 122.07621 33127 ft 491 kts 13°
2026-05-06 18:32 -19.50680 122.08992 32569 ft 489 kts 13°
2026-05-06 18:33 -19.47541 122.10359 32010 ft 486 kts 13°
2026-05-06 18:33 -19.44417 122.11722 31458 ft 484 kts 13°
2026-05-06 18:33 -19.41315 122.13072 30914 ft 481 kts 13°
2026-05-06 18:33 -19.38233 122.14411 30445 ft 476 kts 13°
2026-05-06 18:34 -19.35179 122.15737 29829 ft 474 kts 13°
2026-05-06 18:34 -19.33170 122.16609 29577 ft 468 kts 14°
2026-05-06 18:34 -19.30173 122.17907 28966 ft 465 kts 14°
2026-05-06 18:34 -19.26247 122.19604 28359 ft 456 kts 14°
2026-05-06 18:35 -19.24761 122.20257 29071 ft 396 kts 13°
2026-05-06 18:35 -19.19668 122.22519 27899 ft 411 kts 13°
2026-05-06 18:36 -19.16992 122.23651 26824 ft 418 kts 13°
2026-05-06 18:36 -19.14302 122.24790 26347 ft 414 kts 14°
2026-05-06 18:36 -19.11624 122.25932 25905 ft 414 kts 14°
2026-05-06 18:36 -19.08955 122.27075 25472 ft 414 kts 14°
2026-05-06 18:37 -19.06281 122.28227 24994 ft 415 kts 15°
2026-05-06 18:37 -19.03612 122.29383 24541 ft 415 kts 15°
2026-05-06 18:37 -19.00963 122.30537 24044 ft 406 kts 15°
2026-05-06 18:37 -18.98393 122.31657 23587 ft 394 kts 15°
2026-05-06 18:38 -18.95872 122.32625 23016 ft 375 kts
2026-05-06 18:38 -18.93386 122.33023 22673 ft 349 kts 355°
2026-05-06 18:38 -18.91034 122.32966 22293 ft 329 kts 346°
2026-05-06 18:38 -18.88770 122.32735 21913 ft 327 kts 347°
2026-05-06 18:39 -18.86501 122.32508 21527 ft 327 kts 347°
2026-05-06 18:39 -18.84230 122.32287 21152 ft 328 kts 348°
2026-05-06 18:39 -18.81956 122.32071 20757 ft 328 kts 348°
2026-05-06 18:40 -18.77420 122.31644 19980 ft 327 kts 349°
2026-05-06 18:40 -18.75181 122.31431 19588 ft 327 kts 349°
2026-05-06 18:40 -18.72914 122.31215 19202 ft 327 kts 349°
2026-05-06 18:40 -18.70646 122.31000 18811 ft 327 kts 350°
2026-05-06 18:41 -18.68381 122.30785 18424 ft 328 kts 350°
2026-05-06 18:41 -18.66104 122.30570 17966 ft 328 kts 351°
2026-05-06 18:41 -18.63839 122.30353 17571 ft 326 kts 351°
2026-05-06 18:41 -18.61584 122.30138 17171 ft 325 kts 351°
2026-05-06 18:42 -18.59331 122.29926 16764 ft 324 kts 351°
2026-05-06 18:42 -18.57091 122.29713 16363 ft 323 kts 351°
2026-05-06 18:42 -18.54853 122.29502 15957 ft 322 kts 351°
2026-05-06 18:42 -18.52620 122.29292 15543 ft 322 kts 351°
2026-05-06 18:43 -18.50391 122.29079 15136 ft 322 kts 351°
2026-05-06 18:43 -18.48160 122.28867 14724 ft 321 kts 352°
2026-05-06 18:43 -18.45960 122.28657 14318 ft 321 kts 352°
2026-05-06 18:43 -18.43736 122.28442 13896 ft 321 kts 352°
2026-05-06 18:44 -18.41504 122.28226 13445 ft 321 kts 352°
2026-05-06 18:44 -18.39290 122.28011 13026 ft 319 kts 352°
2026-05-06 18:44 -18.37084 122.27802 12620 ft 317 kts 353°
2026-05-06 18:44 -18.34890 122.27596 12212 ft 316 kts 353°
2026-05-06 18:45 -18.32704 122.27390 11801 ft 314 kts 353°
2026-05-06 18:45 -18.30530 122.27186 11398 ft 313 kts 353°
2026-05-06 18:45 -18.28373 122.26981 11112 ft 307 kts 353°
2026-05-06 18:45 -18.26282 122.26786 10908 ft 296 kts 353°
2026-05-06 18:46 -18.24244 122.26593 10307 ft 293 kts 353°
2026-05-06 18:46 -18.22246 122.26402 9877 ft 283 kts 353°
2026-05-06 18:46 -18.20321 122.26214 9488 ft 272 kts 353°
2026-05-06 18:46 -18.18485 122.25954 9143 ft 261 kts 348°
2026-05-06 18:47 -18.16739 122.25528 8809 ft 256 kts 342°
2026-05-06 18:47 -18.15086 122.24945 8485 ft 245 kts 338°
2026-05-06 18:47 -18.13552 122.24242 8166 ft 235 kts 333°
2026-05-06 18:47 -18.12131 122.23447 7885 ft 232 kts 328°
2026-05-06 18:48 -18.10771 122.22552 7594 ft 236 kts 325°
2026-05-06 18:48 -18.09446 122.21534 7285 ft 236 kts 321°
2026-05-06 18:48 -18.08195 122.20418 6971 ft 236 kts 317°
2026-05-06 18:48 -18.07016 122.19205 6670 ft 237 kts 313°
2026-05-06 18:49 -18.05930 122.17900 6357 ft 238 kts 308°
2026-05-06 18:49 -18.04935 122.16514 6033 ft 238 kts 304°
2026-05-06 18:49 -18.04036 122.15059 5724 ft 237 kts 300°
2026-05-06 18:49 -18.03249 122.13532 5410 ft 237 kts 295°
2026-05-06 18:50 -18.02577 122.11950 5098 ft 237 kts 291°
2026-05-06 18:50 -18.02014 122.10330 4788 ft 236 kts 287°
2026-05-06 18:50 -18.01506 122.08695 4492 ft 235 kts 292°
2026-05-06 18:50 -18.00628 122.07250 4192 ft 235 kts 312°
2026-05-06 18:51 -17.99360 122.06187 3898 ft 234 kts 331°
2026-05-06 18:51 -17.97869 122.05609 3618 ft 231 kts 351°
2026-05-06 18:51 -17.96272 122.05559 3329 ft 229 kts
2026-05-06 18:51 -17.94757 122.06030 3044 ft 226 kts 28°
2026-05-06 18:52 -17.93477 122.06948 2764 ft 221 kts 47°
2026-05-06 18:52 -17.92545 122.08192 2489 ft 214 kts 63°
2026-05-06 18:52 -17.92010 122.09622 2225 ft 205 kts 78°
2026-05-06 18:52 -17.91895 122.11048 2001 ft 188 kts 92°
2026-05-06 18:53 -17.92112 122.12346 1774 ft 175 kts 103°
2026-05-06 18:53 -17.92430 122.13517 1540 ft 158 kts 103°
2026-05-06 18:53 -17.92699 122.14558 1361 ft 139 kts 103°
2026-05-06 18:53 -17.92953 122.15507 1199 ft 132 kts 103°
2026-05-06 18:54 -17.93197 122.16432 1029 ft 130 kts 102°
2026-05-06 18:54 -17.93431 122.17349 876 ft 130 kts 102°
2026-05-06 18:54 -17.93664 122.18274 718 ft 132 kts 104°
2026-05-06 18:54 -17.93929 122.19174 564 ft 126 kts 104°
2026-05-06 18:55 -17.94169 122.20072 453 ft 128 kts 105°
2026-05-06 18:55 -17.94410 122.20977 241 ft 130 kts 105°
2026-05-06 18:55 -17.94649 122.21878 75 ft 124 kts 104°
2026-05-06 18:55 -17.94842 122.22616 51 ft 83 kts 105°
2026-05-06 18:56 -17.94961 122.23058 39 ft 48 kts 107°
2026-05-06 18:56 -17.95021 122.23287 38 ft 26 kts 105°
2026-05-06 18:56 -17.95069 122.23390 35 ft 6 kts 165°
2026-05-06 18:56 -17.95106 122.23380 36 ft 5 kts 195°
2026-05-06 18:57 -17.95140 122.23371 37 ft 0 kts 195°
2026-05-06 18:57 -17.95150 122.23368 37 ft 3 kts 195°
2026-05-06 18:57 -17.95172 122.23355 37 ft 5 kts 228°
2026-05-06 18:57 -17.95191 122.23316 35 ft 7 kts 247°
2026-05-06 18:58 -17.95226 122.23301 37 ft 6 kts 161°
2026-05-06 18:58 -17.95228 122.23325 35 ft 4 kts 65°
2026-05-06 18:58 -17.95217 122.23346 37 ft 0 kts 64°